Other Surface Observations
Issued by NWS Tucson, AZ

Home | Current Version | Previous Version | Text Only | Print | Product List | Glossary On
Versions: 1 2 3 4 5 6 7 8 9 10 11 12 13 14 15 16 17 18 19 20 21 22 23 24 25 26 27 28 29 30 31 32 33 34 35 36 37 38 39 40 41 42 43 44 45 46 47 48 49 50
000
SXUS55 KTWC 012216
OSOTWC

WEATHER ROUNDUP FOR SOUTHEAST ARIZONA
NATIONAL WEATHER SERVICE TUCSON AZ
315 PM MST TUE SEP 01 2015

AZZ504>506-514-012315-
LOCATION       SKY/WX    TMP DP  RH WIND       PRES   REMARKS
TUCSON         SUNNY     94  56  27 CALM      29.95F
DAVIS-MONTHAN  SUNNY     93  58  30 VRB1      29.94F
CHILDRENS PARK N/A      N/A N/A  31 N4                PIMA CO DEQ
ALVERNON/22ND  N/A       95 N/A N/A N2                PIMA CO DEQ
CHERRY/GLENN   N/A      N/A N/A N/A N/A               PIMA CO DEQ
TANGERINE      N/A       94 N/A N/A SE3               PIMA CO DEQ
CONTL RANCH    N/A       96  58  28 NE2               PIMA CO DEQ
GRANT/1ST      N/A       66  54  66 SW1               PIMA CO DEQ
CRAYCROFT/22ND N/A       93  58  31 N/A               PIMA CO DEQ
GOLFLINKS/KOLB N/A      N/A N/A N/A N/A               PIMA CO DEQ
AJO/12TH       N/A       93  59  32 N/A               PIMA CO DEQ
SAGUARO EAST   N/A       34   9  35 N/A               PIMA CO DEQ
FAIRGROUNDS    N/A       93 N/A N/A N/A               PIMA CO DEQ
SAGUARO        N/A       95  60  31 CALM              *SABINO CYN
SAN CARLOS     NOT AVBL
GREEN VALLEY   N/A       94  54  26 W2                PIMA CO DEQ
HORSE CAMP CYN N/A       85  58  40 E2                *ARAVAIPA CYN
RINCON MTNS    N/A       67  55  66 CALM              *NR MANNING CAMP
$$

AZZ509>511-012315-
LOCATION       SKY/WX    TMP DP  RH WIND       PRES   REMARKS
SAFFORD        PTSUNNY   87  59  38 CALM      30.00F
STRAY HORSE    N/A       71  49  46 W5G12             *
TRAIL CABIN    N/A       77  54  45 E4G10             *N OF GRANVILLE
BLACK HILLS    N/A       86  62  45 S2                *N OF FT THOMAS
DRY LAKE       N/A       73  54  51 S4G10             *NATANES MTNS
NOON CREEK     N/A       83  62  49 NE6               *PINALENO MTNS
COLUMBINE      N/A       65  48  55 SE4G11            *PINALENO MTNS
GUTHRIE        N/A       78  56  47 CALM              *SW OF GUTHRIE
$$

AZZ502-503-513-012315-
LOCATION       SKY/WX    TMP DP  RH WIND       PRES   REMARKS
NOGALES        PTSUNNY   89  55  31 VRB6      30.05F
SELLS          N/A       99  55  23 SW8G16            *
SASABE         N/A       93  55  28 SW8G19            *ALTAR VLY
HOPKINS        N/A       81  50  34 SE5G10            *SANTA RITA MTNS
CARR CYN       N/A       83  52  34 SE2G10            *W OF HEREFORD
$$

AZZ507-508-512-012315-
LOCATION       SKY/WX    TMP DP  RH WIND       PRES   REMARKS
SIERRA VISTA   PTSUNNY   87  48  26 S5        30.11F
DOUGLAS        MOSUNNY   89  50  26 VRB6      30.06F
EMPIRE MTNS    N/A       89  53  29 SW7G12            *LAS CIENEGAS NCA
MULESHOE RANCH N/A       87  58  38 SW6               *PRESERVE
HEADQUARTERS   N/A       83  52  34 SW5G16            *CHIRICAHUA MTNS
$$

.............................NOTES.............................
THIS IS AN AUTOMATED COLLECTIVE WITH MINIMAL QUALITY CONTROL.
PIMA CO DEQ SITES HAVE NONSTANDARD WIND SENSOR HEIGHTS.
PIMA CO DEQ SITES DO NOT REPORT WIND GUSTS.
* INDICATES WIND SENSORS LOCATED AT 20 FEET INSTEAD OF 33 FEET.
..............................KEY..............................
SKY/WX - SKY CONDITION/WEATHER
TMP    - TEMPERATURE IN FAHRENHEIT
DP     - DEWPOINT IN FAHRENHEIT
RH     - RELATIVE HUMIDITY IN PERCENT
WIND   - DIRECTION AND SPEED IN MILES PER HOUR (MPH)
VRB    - VARIABLE WIND DIRECTION
PRES   - MEAN SEA LEVEL PRESSURE IN INCHES OF MERCURY
         F - FALLING PRESSURE   R - RISING PRESSURE
         S - STEADY PRESSURE
VSB    - VISIBILITY IN MILES
HX     - HEAT INDEX IN FAHRENHEIT
WCI    - WIND CHILL INDEX IN FAHRENHEIT
N/A    - NOT AVAILABLE
AFB    - AIR FORCE BASE
         DAVIS-MONTHAN IS DAVIS-MONTHAN AIR FORCE BASE
CYN    - CANYON
MTNS   - MOUNTAINS
NCA    - NATIONAL CONSERVATION AREA
NR     - NEAR
VLY    - VALLEY
CONTL  - CONTINENTAL
PIMA CO DEQ - PIMA COUNTY DEPT OF ENVIRONMENTAL QUALITY



USA.gov is the U.S. government's official web portal to all federal, state and local government web resources and services.